Weather History for Arbor Vitae, WI

Change the Weather History Date:

Wednesday, June 12, 2013

  Actual Average Record
Temperature  
Mean Temperature 62 °F -  
Max Temperature 79 °F 72 °F 91 °F (1956)
Min Temperature 47 °F 49 °F 30 °F (1927)
Degree Days  
Heating Degree Days 3    
Growing Degree Days 12 (Base 50)    
Moisture  
Dew Point 51 °F    
Average Humidity 63    
Maximum Humidity 93    
Minimum Humidity 33    
Precipitation  
Precipitation 0.00 in - - ()
Sea Level Pressure  
Sea Level Pressure 29.88 in    
Wind  
Wind Speed 2 mph (NE)    
Max Wind Speed 13 mph    
Max Gust Speed -    
Visibility 10 miles    
Events      
Averages and records for this station are not official NWS values.
T = Trace of Precipitation, MM = Missing Value Source: NWS Daily Summary

Daily Weather History Graph

Daily Weather History Graph

Search for Another Location

Airport:

Trip Planner

Search our weather history database for the weather conditions in past years. The results will help you decide how hot, cold, wet, or windy it might be!

Date:

Astronomy

Jun. 12, 2013 Rise Set
Actual Time 5:08 AM CDT 8:49 PM CDT
Civil Twilight 4:29 AM CDT 9:28 PM CDT
Nautical Twilight 3:38 AM CDT 10:19 PM CDT
Astronomical Twilight 2:28 AM CDT 11:30 PM CDT
Moon 8:56 AM CDT (6/12) 11:14 PM CDT (6/12)
Length of Visible Light 16h 58m
Length of Day
15h 41m
Waxing Crescent, 14% of the Moon is Illuminated
Jun 12
Waxing Crescent
Jun 16
First Quarter
Jun 23
Full
Jun 29
Last Quarter
Jul 8
New

Hourly Weather History & Observations

Time (CDT) Temp. Dew Point Humidity Pressure Visibility Wind Dir Wind Speed Gust Speed Precip Events Conditions
12:15 AM 53.1 °F 49.3 °F 87% 29.93 in 10.0 mi Calm Calm - N/A   Clear
12:35 AM 54.5 °F 50.0 °F 85% 29.93 in 10.0 mi Calm Calm - N/A   Clear
12:55 AM 51.8 °F 48.9 °F 90% 29.93 in 10.0 mi Calm Calm - N/A   Clear
1:15 AM 51.8 °F 49.1 °F 90% 29.93 in 10.0 mi Calm Calm - N/A   Clear
1:35 AM 51.8 °F 49.1 °F 90% 29.93 in 10.0 mi Calm Calm - N/A   Clear
1:55 AM 51.8 °F 48.7 °F 89% 29.92 in 10.0 mi Calm Calm - N/A   Clear
2:15 AM 51.8 °F 48.9 °F 90% 29.92 in 10.0 mi Calm Calm - N/A   Clear
2:35 AM 51.8 °F 49.3 °F 91% 29.92 in 10.0 mi Calm Calm - N/A   Clear
2:55 AM 49.5 °F 47.1 °F 92% 29.93 in 10.0 mi Calm Calm - N/A   Clear
3:15 AM 51.8 °F 49.3 °F 91% 29.93 in 10.0 mi Calm Calm - N/A   Clear
3:35 AM 49.8 °F 47.3 °F 91% 29.93 in 10.0 mi Calm Calm - N/A   Clear
3:55 AM 49.3 °F 46.9 °F 92% 29.92 in 10.0 mi Calm Calm - N/A   Clear
4:15 AM 49.3 °F 46.9 °F 92% 29.91 in 10.0 mi Calm Calm - N/A   Clear
4:35 AM 47.7 °F 45.7 °F 93% 29.92 in 10.0 mi Calm Calm - N/A   Clear
4:55 AM 49.3 °F 47.3 °F 93% 29.94 in 10.0 mi Calm Calm - N/A   Clear
5:15 AM 51.8 °F 49.8 °F 93% 29.94 in 10.0 mi Calm Calm - N/A   Clear
5:35 AM 51.8 °F 49.3 °F 91% 29.93 in 10.0 mi Calm Calm - N/A   Clear
5:55 AM 49.6 °F 47.3 °F 92% 29.92 in 10.0 mi Calm Calm - N/A   Clear
6:15 AM 51.8 °F 49.6 °F 92% 29.91 in 10.0 mi Calm Calm - N/A   Clear
6:35 AM 55.6 °F 52.9 °F 91% 29.91 in 10.0 mi Calm Calm - N/A   Clear
6:55 AM 56.8 °F 53.4 °F 88% 29.92 in 10.0 mi Calm Calm - N/A   Clear
7:15 AM 59.5 °F 52.3 °F 77% 29.91 in 10.0 mi Calm Calm - N/A   Clear
7:35 AM 61.9 °F 54.3 °F 76% 29.92 in 10.0 mi Calm Calm - N/A   Clear
7:55 AM 64.4 °F 55.8 °F 73% 29.91 in 10.0 mi Calm Calm - N/A   Clear
8:15 AM 65.3 °F 56.8 °F 74% 29.93 in 10.0 mi Calm Calm - N/A   Clear
8:35 AM 67.1 °F 57.0 °F 70% 29.92 in 10.0 mi SSW 3.5 mph - N/A   Clear
8:55 AM 69.4 °F 57.6 °F 66% 29.91 in 10.0 mi South 5.8 mph - N/A   Clear
9:15 AM 72.0 °F 57.0 °F 59% 29.90 in 10.0 mi South 4.6 mph - N/A   Clear
9:35 AM 72.0 °F 52.5 °F 50% 29.89 in 10.0 mi SSE 5.8 mph - N/A   Clear
9:55 AM 72.7 °F 48.6 °F 42% 29.89 in 10.0 mi South 6.9 mph - N/A   Clear
10:15 AM 72.1 °F 49.8 °F 45% 29.89 in 10.0 mi South 4.6 mph - N/A   Clear
10:35 AM 74.5 °F 50.7 °F 43% 29.89 in 10.0 mi South 6.9 mph - N/A   Clear
10:55 AM 74.5 °F 48.9 °F 40% 29.89 in 10.0 mi ESE 3.5 mph - N/A   Clear
11:15 AM 76.8 °F 52.0 °F 42% 29.89 in 10.0 mi Calm Calm - N/A   Clear
11:35 AM 77.0 °F 50.5 °F 39% 29.89 in 10.0 mi SSW 3.5 mph - N/A   Mostly Cloudy
11:55 AM 76.3 °F 51.3 °F 41% 29.88 in 10.0 mi South 5.8 mph - N/A   Scattered Clouds
12:15 PM 77.0 °F 49.8 °F 38% 29.88 in 10.0 mi Calm Calm - N/A   Clear
12:35 PM 77.0 °F 50.0 °F 39% 29.87 in 10.0 mi South 5.8 mph - N/A   Clear
12:55 PM 77.0 °F 49.8 °F 38% 29.87 in 10.0 mi South 4.6 mph - N/A   Scattered Clouds
1:15 PM 77.0 °F 48.9 °F 37% 29.87 in 10.0 mi ESE 5.8 mph - N/A   Scattered Clouds
1:35 PM 77.0 °F 49.1 °F 37% 29.86 in 10.0 mi West 6.9 mph - N/A   Clear
1:55 PM 77.0 °F 48.2 °F 36% 29.86 in 10.0 mi WSW 3.5 mph - N/A   Scattered Clouds
2:15 PM 77.0 °F 47.7 °F 35% 29.85 in 10.0 mi WSW 3.5 mph - N/A   Clear
2:35 PM 77.0 °F 45.7 °F 33% 29.85 in 10.0 mi Calm Calm - N/A   Clear
2:55 PM 77.0 °F 46.8 °F 34% 29.84 in 10.0 mi Calm Calm - N/A   Clear
3:15 PM 77.2 °F 47.7 °F 35% 29.84 in 10.0 mi North 3.5 mph - N/A   Clear
3:35 PM 77.7 °F 48.2 °F 35% 29.84 in 10.0 mi NW 3.5 mph - N/A   Clear
3:55 PM 77.0 °F 47.7 °F 35% 29.83 in 10.0 mi WNW 3.5 mph - N/A   Mostly Cloudy
4:15 PM 77.9 °F 48.7 °F 36% 29.82 in 10.0 mi NNE 5.8 mph - N/A   Overcast
4:35 PM 76.3 °F 57.4 °F 52% 29.82 in 10.0 mi SSW 12.7 mph - N/A   Scattered Clouds
4:55 PM 72.0 °F 56.8 °F 59% 29.82 in 10.0 mi SSW 6.9 mph - N/A   Scattered Clouds
5:15 PM 72.0 °F 58.5 °F 62% 29.83 in 10.0 mi SSW 10.4 mph - N/A   Mostly Cloudy
5:35 PM 72.0 °F 60.3 °F 67% 29.82 in 10.0 mi SSW 9.2 mph - N/A   Overcast
5:55 PM 72.0 °F 61.9 °F 70% 29.81 in 10.0 mi SSW 5.8 mph - N/A   Overcast
6:15 PM 72.0 °F 61.7 °F 70% 29.81 in 10.0 mi South 3.5 mph - N/A   Overcast
6:35 PM 72.0 °F 61.2 °F 69% 29.81 in 10.0 mi Calm Calm - N/A   Overcast
6:55 PM 72.0 °F 59.5 °F 65% 29.81 in 10.0 mi NNE 6.9 mph - N/A   Mostly Cloudy
7:15 PM 72.0 °F 55.8 °F 57% 29.81 in 10.0 mi NNE 4.6 mph - N/A   Scattered Clouds
7:35 PM 72.0 °F 50.9 °F 47% 29.83 in 10.0 mi NNE 4.6 mph - N/A   Mostly Cloudy
7:55 PM 72.0 °F 47.5 °F 42% 29.83 in 10.0 mi North 8.1 mph - N/A   Overcast
8:15 PM 72.0 °F 48.7 °F 44% 29.84 in 10.0 mi North 4.6 mph - N/A   Mostly Cloudy
8:35 PM 72.0 °F 49.5 °F 45% 29.84 in 10.0 mi NNE 3.5 mph - N/A   Mostly Cloudy
8:55 PM 69.4 °F 47.8 °F 46% 29.85 in 10.0 mi NNE 4.6 mph - N/A   Mostly Cloudy
9:15 PM 66.7 °F 48.6 °F 52% 29.86 in 10.0 mi North 4.6 mph - N/A   Overcast
9:35 PM 63.7 °F 49.5 °F 60% 29.87 in 10.0 mi North 5.8 mph - N/A   Overcast
9:55 PM 64.4 °F 49.3 °F 58% 29.88 in 10.0 mi North 5.8 mph - N/A   Overcast
10:15 PM 65.3 °F 47.5 °F 52% 29.87 in 10.0 mi North 5.8 mph - N/A   Mostly Cloudy
10:35 PM 64.8 °F 47.5 °F 53% 29.87 in 10.0 mi NE 3.5 mph - N/A   Mostly Cloudy
10:55 PM 64.6 °F 47.7 °F 54% 29.87 in 10.0 mi NNE 3.5 mph - N/A   Overcast
11:15 PM 64.4 °F 48.2 °F 56% 29.87 in 10.0 mi NNE 3.5 mph - N/A   Overcast
11:35 PM 63.0 °F 48.2 °F 59% 29.87 in 10.0 mi North 3.5 mph - N/A   Scattered Clouds
11:55 PM 61.9 °F 47.8 °F 60% 29.88 in 10.0 mi North 5.8 mph - N/A   Scattered Clouds